Weather reports worldwide

Advertisment
Decimomannu, Italy (16546): temperature & dewpoint: 19.03.2019 07:00:00 - 25.03.2019 07:00:00 (CET)Decimomannu, Italy (16546): wind speed: 19.03.2019 07:00:00 - 25.03.2019 07:00:00 (CET)Decimomannu, Italy (16546): wind direction: 19.03.2019 07:00:00 - 25.03.2019 07:00:00 (CET)Decimomannu, Italy (16546): reduced air pressure: 19.03.2019 07:00:00 - 25.03.2019 07:00:00 (CET)Decimomannu, Italy (16546): visibility: 19.03.2019 07:00:00 - 25.03.2019 07:00:00 (CET)
Date & Time tt [°C] td [°C] ff [km/h] ff [kn] dd ppp [hPa] vv [km]
25.03.2019 07:00:00 5,2 3,5 13 7 N 1018,9 10
25.03.2019 06:00:00 6,0 4,0 9 5 NNW - 10
25.03.2019 05:00:00 7,0 5,0 8 4 NW - 10
25.03.2019 04:00:00 6,8 5,0 11 6 N 1018,9 10
25.03.2019 03:00:00 7,0 6,0 8 4 NW - 10
25.03.2019 02:00:00 - - - - - - -
25.03.2019 01:00:00 8,8 7,1 5 3 NW 1020,6 14
25.03.2019 00:00:00 9,0 8,0 8 4 NNW - 10
24.03.2019 23:00:00 11,0 10,0 8 4 N - 10
24.03.2019 22:00:00 11,4 10,1 8 4 N 1021,3 15
24.03.2019 21:00:00 13,0 12,0 9 5 NNW - 10
24.03.2019 20:00:00 14,0 12,0 11 6 NNW - 10
24.03.2019 19:00:00 17,0 11,5 9 5 N 1020,8 18
24.03.2019 18:00:00 19,0 13,0 15 8 NNW - 10
24.03.2019 17:00:00 20,0 13,0 9 5 SE - 10
24.03.2019 16:00:00 22,0 9,5 11 6 SSW 1019,8 20
24.03.2019 15:00:00 23,0 7,0 5 3 W - 10
24.03.2019 14:00:00 22,0 8,0 8 4 NNW - 10
24.03.2019 13:00:00 21,2 8,8 5 3 WNW 1022,7 20
24.03.2019 12:00:00 19,0 10,0 9 5 NNW - 10
24.03.2019 11:00:00 18,0 9,0 8 4 NW - 10
24.03.2019 10:00:00 14,6 10,4 9 5 NW 1023,8 20
24.03.2019 09:00:00 11,0 10,0 9 5 NNW - 10
24.03.2019 08:00:00 8,0 6,0 8 4 NNW - 10
24.03.2019 07:00:00 5,8 4,3 5 3 NNW 1022,8 10
24.03.2019 06:00:00 6,0 5,0 8 4 NNW - 10
24.03.2019 05:00:00 6,0 5,0 5 3 NW - 10
24.03.2019 04:00:00 6,8 5,3 8 4 NNW 1022,3 10
24.03.2019 03:00:00 7,0 5,0 5 3 NNW - 10
24.03.2019 02:00:00 8,0 6,0 11 6 NNW - 10
24.03.2019 01:00:00 8,2 6,7 8 4 NNW 1022,5 10
24.03.2019 00:00:00 9,0 8,0 5 3 NNW - 10
23.03.2019 23:00:00 10,0 9,0 5 3 NE - 10
23.03.2019 22:00:00 11,8 10,9 4 2 N 1022,4 12
23.03.2019 21:00:00 12,0 11,0 4 2 SE - 10
23.03.2019 20:00:00 13,0 12,0 5 3 ESE - 10
23.03.2019 19:00:00 15,0 12,5 8 4 SSE 1021,3 20
23.03.2019 18:00:00 16,0 13,0 13 7 SSE - 10
23.03.2019 17:00:00 19,0 12,0 16 9 SE - 10
23.03.2019 16:00:00 19,8 13,3 18 10 SE 1020,6 25
23.03.2019 15:00:00 21,0 11,0 24 13 SSE - 10
23.03.2019 14:00:00 23,0 6,0 5 3 W - 10
23.03.2019 13:00:00 21,6 6,7 9 5 SW 1021,2 25
23.03.2019 12:00:00 21,0 9,0 8 4 W - 10
23.03.2019 11:00:00 19,0 15,0 8 4 WNW - 10
23.03.2019 10:00:00 15,4 10,2 8 4 WNW 1022,4 25
23.03.2019 09:00:00 12,0 10,0 8 4 W - 10
23.03.2019 08:00:00 8,0 6,0 5 3 WNW - 10
23.03.2019 07:00:00 7,0 5,6 9 5 WNW 1022,3 20
23.03.2019 06:00:00 7,0 5,0 8 4 WSW - 10
23.03.2019 05:00:00 8,0 7,0 8 4 WNW - 10
23.03.2019 04:00:00 8,2 7,1 8 4 W 1022,0 15
23.03.2019 03:00:00 10,0 8,0 9 5 N - 10
23.03.2019 02:00:00 10,0 9,0 13 7 N - 10
23.03.2019 01:00:00 11,6 9,9 11 6 N 1022,7 15
23.03.2019 00:00:00 13,0 11,0 15 8 NNW - 10
22.03.2019 23:00:00 13,0 12,0 9 5 N - 10
22.03.2019 22:00:00 13,0 10,9 8 4 NNE 1023,0 20
22.03.2019 21:00:00 14,0 12,0 8 4 NE - 10
22.03.2019 20:00:00 14,0 12,0 5 3 NE - 10
22.03.2019 19:00:00 15,2 13,2 13 7 NE 1022,4 20
22.03.2019 18:00:00 16,0 13,0 16 9 ENE - 10
22.03.2019 17:00:00 17,0 13,0 16 9 ENE - 10
22.03.2019 16:00:00 17,0 12,7 13 7 ENE 1021,9 16
22.03.2019 15:00:00 18,0 13,0 16 9 ENE - 10
22.03.2019 14:00:00 17,0 13,0 11 6 E - 10
22.03.2019 13:00:00 18,8 14,3 11 6 ESE 1022,2 12
22.03.2019 12:00:00 17,0 14,0 16 9 E - 10
22.03.2019 11:00:00 17,0 13,0 16 9 E - 10
22.03.2019 10:00:00 15,0 12,7 15 8 E 1022,1 10
22.03.2019 09:00:00 14,0 12,0 15 8 SSE - 10
22.03.2019 08:00:00 13,0 11,0 16 9 ENE - 10
22.03.2019 07:00:00 13,2 12,4 9 5 E 1020,9 10
22.03.2019 06:00:00 14,0 12,0 13 7 E - 8
22.03.2019 05:00:00 14,0 13,0 8 4 NE - 10
22.03.2019 04:00:00 14,0 12,7 11 6 N 1019,9 12
22.03.2019 03:00:00 14,0 12,0 15 8 NNW - 10
22.03.2019 02:00:00 14,0 13,0 13 7 NNW - 10
22.03.2019 01:00:00 14,0 12,4 11 6 NNE 1020,9 15
22.03.2019 00:00:00 14,0 12,0 13 7 NNE - 10
21.03.2019 23:00:00 14,0 12,0 9 5 ENE - 10
21.03.2019 22:00:00 14,0 10,2 2 1 N 1020,6 15
21.03.2019 21:00:00 14,0 10,0 15 8 NE - 10
21.03.2019 20:00:00 15,0 10,0 16 9 NE - 10
21.03.2019 19:00:00 15,0 10,2 18 10 NE 1019,3 20
21.03.2019 18:00:00 15,0 10,0 18 10 N - 10
21.03.2019 17:00:00 15,0 11,0 5 3 ENE - 10
21.03.2019 16:00:00 16,4 11,4 15 8 NE 1019,2 15
21.03.2019 15:00:00 16,0 10,0 22 12 NNE - 10
21.03.2019 14:00:00 16,0 11,0 16 9 NE - 10
21.03.2019 13:00:00 16,2 11,8 18 10 NNE 1020,6 20
21.03.2019 12:00:00 16,0 11,0 22 12 NNE - 10
21.03.2019 11:00:00 16,0 10,0 22 12 NE - 10
21.03.2019 10:00:00 13,6 11,1 21 11 NNE 1020,6 15
21.03.2019 09:00:00 13,0 11,0 16 9 NNE - 10
21.03.2019 08:00:00 13,0 11,0 9 5 NE - 10
21.03.2019 07:00:00 12,0 10,4 11 6 NE 1019,5 12
21.03.2019 06:00:00 12,0 10,0 4 2 N - 10
21.03.2019 05:00:00 12,0 11,0 11 6 NNE - 10
21.03.2019 04:00:00 11,8 11,0 9 5 NNE 1019,4 10
21.03.2019 03:00:00 13,0 11,0 8 4 ENE - 10
21.03.2019 02:00:00 13,0 9,0 8 4 NE - 10
21.03.2019 01:00:00 13,0 9,4 18 10 NNE 1020,5 10
21.03.2019 00:00:00 13,0 11,0 11 6 NNE - 10
20.03.2019 23:00:00 13,0 12,0 13 7 NNE - 10
20.03.2019 22:00:00 13,2 11,3 15 8 NNE 1021,2 12
20.03.2019 21:00:00 13,0 11,0 16 9 NE - 10
20.03.2019 20:00:00 13,0 11,0 13 7 NE - 10
20.03.2019 19:00:00 14,0 11,5 18 10 NE 1019,8 12
20.03.2019 18:00:00 14,0 11,0 15 8 NE - 10
20.03.2019 17:00:00 15,0 9,0 16 9 ENE - 10
20.03.2019 16:00:00 15,6 8,6 21 11 NE 1019,8 12
20.03.2019 15:00:00 16,0 8,0 18 10 ENE - 10
20.03.2019 14:00:00 16,0 7,0 16 9 NE - 10
20.03.2019 13:00:00 15,6 8,4 16 9 NE 1020,4 15
20.03.2019 12:00:00 15,0 7,0 16 9 NNE - 10
20.03.2019 11:00:00 14,0 10,0 15 8 NNW - 10
20.03.2019 10:00:00 12,0 8,7 16 9 NW 1020,4 18
20.03.2019 09:00:00 10,0 8,0 8 4 WNW - 10
20.03.2019 08:00:00 8,0 6,0 8 4 NNW - 10
20.03.2019 07:00:00 7,8 6,3 8 4 N 1020,0 18
20.03.2019 06:00:00 8,0 6,0 9 5 NNW - 10
20.03.2019 05:00:00 9,0 7,0 8 4 NNW - 10
20.03.2019 04:00:00 9,8 8,2 5 3 NNW 1019,1 12
20.03.2019 03:00:00 10,0 8,0 9 5 NNW - 10
20.03.2019 02:00:00 10,0 8,0 9 5 NW - 10
20.03.2019 01:00:00 9,6 7,4 5 3 NNW 1020,7 14
20.03.2019 00:00:00 10,0 9,0 4 2 NNE - 10
19.03.2019 23:00:00 11,0 9,0 8 4 NNE - 10
19.03.2019 22:00:00 11,0 9,6 2 1 NNE 1020,1 12
19.03.2019 21:00:00 11,0 9,0 4 2 WNW - 10
19.03.2019 20:00:00 11,0 10,0 9 5 ENE - 10
19.03.2019 19:00:00 12,4 11,0 11 6 NE 1018,0 10
19.03.2019 18:00:00 13,0 10,0 11 6 S - 10
19.03.2019 17:00:00 14,0 10,0 18 10 SSE - 10
19.03.2019 16:00:00 15,4 8,4 15 8 SSE 1016,4 15
19.03.2019 15:00:00 16,0 6,0 18 10 SSE - 10
19.03.2019 14:00:00 18,0 6,0 4 2 ENE - 10
19.03.2019 13:00:00 17,4 5,7 4 2 SSE 1017,1 20
19.03.2019 12:00:00 16,0 6,0 5 3 ENE - 10
19.03.2019 11:00:00 15,0 8,0 5 3 N - 10
19.03.2019 10:00:00 13,8 8,4 4 2 N 1017,8 20
19.03.2019 09:00:00 10,0 9,0 2 1 W - 10
19.03.2019 08:00:00 7,0 6,0 4 2 NE - 10
19.03.2019 07:00:00 4,6 3,7 8 4 ENE 1017,3 10

tt = temperature
td = dewpoint
ff = wind speed
dd = wind direction
ppp = reduced air pressure
vv = visibility

Next stations